Change the Weather History Date:

Saturday, June 22, 2013

  Actual Average Record
Temperature  
Mean Temperature 77 °F -  
Max Temperature 89 °F 86 °F 99 °F (2006)
Min Temperature 66 °F 67 °F 61 °F (2007)
Cooling Degree Days 12    
Growing Degree Days 27 (Base 50)    
Moisture  
Dew Point 66 °F    
Average Humidity 70    
Maximum Humidity 97    
Minimum Humidity 44    
Precipitation  
Precipitation 0.00 in - - ()
Sea Level Pressure  
Sea Level Pressure 30.13 in    
Wind  
Wind Speed 3 mph (East)    
Max Wind Speed 10 mph    
Max Gust Speed -    
Visibility 10 miles    
Events      
Averages and records for this station are not official NWS values.
T = Trace of Precipitation, MM = Missing Value Source: NWS Daily Summary

Daily Weather History Graph

Daily Weather History Graph

Search for Another Location

Airport or City:

Trip Planner

Search our weather history database for the weather conditions in past years. The results will help you decide how hot, cold, wet, or windy it might be!

Date:

Astronomy

Jun. 22, 2013 Rise Set
Actual Time 5:47 AM CDT 8:05 PM CDT
Civil Twilight 5:18 AM CDT 8:33 PM CDT
Nautical Twilight 4:44 AM CDT 9:08 PM CDT
Astronomical Twilight 4:06 AM CDT 9:46 PM CDT
Moon 7:23 PM CDT (6/22) 4:56 AM CDT (6/22)
Length of Visible Light 15h 14m
Length of Day
14h 17m
Waxing Gibbous, 99% of the Moon is Illuminated
Jun 22
Waxing Gibbous
Jun 23
Full
Jun 29
Last Quarter
Jul 8
New
Jul 15
First Quarter

Hourly Weather History & Observations

Time (CDT) Temp. Heat Index Dew Point Humidity Pressure Visibility Wind Dir Wind Speed Gust Speed Precip Events Conditions
12:56 AM 72.0 °F - 68.0 °F 87% 30.14 in 10.0 mi Calm Calm - N/A   Clear
1:56 AM 69.1 °F - 66.9 °F 93% 30.12 in 9.0 mi Calm Calm - N/A   Clear
2:56 AM 70.0 °F - 66.9 °F 90% 30.12 in 10.0 mi Calm Calm - N/A   Partly Cloudy
3:56 AM 68.0 °F - 66.0 °F 93% 30.12 in 9.0 mi Calm Calm - N/A   Clear
4:56 AM 66.9 °F - 66.0 °F 97% 30.13 in 8.0 mi Calm Calm - N/A   Clear
5:56 AM 66.9 °F - 64.9 °F 93% 30.15 in 10.0 mi Calm Calm - N/A   Clear
6:56 AM 70.0 °F - 66.9 °F 90% 30.16 in 10.0 mi East 3.5 mph - N/A   Clear
7:56 AM 73.9 °F - 68.0 °F 82% 30.17 in 10.0 mi ESE 4.6 mph - N/A   Clear
8:56 AM 79.0 °F - 66.9 °F 66% 30.17 in 10.0 mi East 8.1 mph - N/A   Clear
9:56 AM 82.9 °F 85.0 °F 66.0 °F 56% 30.17 in 10.0 mi SSE 5.8 mph - N/A   Clear
10:56 AM 84.0 °F 85.8 °F 64.9 °F 53% 30.18 in 10.0 mi ESE 8.1 mph - N/A   Clear
11:56 AM 87.1 °F 87.8 °F 63.0 °F 44% 30.18 in 10.0 mi East 9.2 mph - N/A   Clear
12:56 PM 86.0 °F 87.3 °F 64.0 °F 48% 30.18 in 10.0 mi ENE 6.9 mph - N/A   Scattered Clouds
1:56 PM 88.0 °F 89.3 °F 64.0 °F 45% 30.16 in 10.0 mi East 8.1 mph - N/A   Scattered Clouds
2:56 PM 88.0 °F 89.3 °F 64.0 °F 45% 30.14 in 10.0 mi ENE 6.9 mph - N/A   Partly Cloudy
3:56 PM 88.0 °F 89.6 °F 64.9 °F 46% 30.11 in 10.0 mi East 8.1 mph - N/A   Clear
4:56 PM 88.0 °F 90.3 °F 66.0 °F 48% 30.09 in 10.0 mi East 10.4 mph - N/A   Scattered Clouds
5:56 PM 86.0 °F 87.6 °F 64.9 °F 49% 30.07 in 10.0 mi East 6.9 mph - N/A   Partly Cloudy
6:56 PM 84.0 °F 86.5 °F 66.9 °F 56% 30.06 in 10.0 mi SE 3.5 mph - N/A   Clear
7:56 PM 79.0 °F - 66.9 °F 66% 30.07 in 10.0 mi Calm Calm - N/A   Clear
8:56 PM 75.9 °F - 68.0 °F 76% 30.08 in 10.0 mi Calm Calm - N/A   Clear
9:56 PM 75.0 °F - 68.0 °F 79% 30.10 in 10.0 mi Calm Calm - N/A   Clear
10:56 PM 73.0 °F - 68.0 °F 84% 30.12 in 10.0 mi Calm Calm - N/A   Clear
11:56 PM 71.1 °F - 68.0 °F 90% 30.12 in 10.0 mi Calm Calm - N/A   Clear